User: anonymous   Login
Location: Bucharest
(44.4268°N, 26.1025°E)
Time: 04:47:08
(UTC+02:00)
Language:

COSMOS 2251 DEB - Orbit

View from above orbital plane
View from above orbital plane
View from above satellite
View from above satellite

Ground track
Ground track

The orbit data is extracted from the following two-line orbital elements,

1 37335U 93036BLB 22342.55621396  .00010925  00000-0  25500-2 0  9993
2 37335  74.0043  59.8684 0039981  27.2256 333.0990 14.54307478648890
Epoch (UTC): 08 December 2022 13:20:56
Eccentricity: 0.0039981
inclination: 74.0043°
perigee height: 683 km
apogee height: 740 km
right ascension of ascending node: 59.8684°
argument of perigee: 27.2256°
revolutions per day: 14.54307478
mean anomaly at epoch: 333.0990°
orbit number at epoch: 64889

The dashed part of the orbit path shows where the satellite is in the earth's shadow,  

DLR